Weather Refreshing every minute   No change Green  Reduced Blue  Increased Red  Changed Cyan
DescriptionDate Time (UTC/GMT)Temperature °CDew Point Temperature °CLiquid Freezing temperature °CMax Wind Direction °C Max Wind Speed m/sPrecipitation Total mmRain Intensity mm/hrRain On/OffRain State Relative Humidity %Surface StateSurface Temperature °CWater Layer mmWater Thickness mmWind Direction °D Wind Speed m/s
B1318 Great North Road 12/05/2020 09:30:00 8.7 0.2 0 0 4.4 0 0 Rain detector off No Precipitation 55 Dry 0 0 0 335 2.2
B1318 09/04/2020 10:00:00 8.5 5.8 0 0 3.4 0 0 Rain detector off No Precipitation 82.8 Moist 0 0 0 102 1.3
C304 Garesfield 12/05/2020 09:30:00 6.2 2 0 308 5.3 0 0 Rain detector off No Precipitation 75 Dry 0 0 0 314 3.2
A1231 Wessington Way 12/05/2020 09:20:00 8.8 2.1 0 162 4.5 0 0 Rain detector off No Precipitation 63 Dry 0 0 0 357 2.2
Burdon Lane 12/05/2020 09:20:00 7.5 0.7 -0.1 0 2.8 0 0 Rain detector off Invalid 62 Dry 0 0 0 357 1.9
A690 Houghton Cut 12/05/2020 09:20:00 8.1 2.2 0 71 4.8 0 0 Rain detector off No Precipitation 66 Dry 0 0 0 311 3
A1018 Sunderland Road 12/05/2020 09:30:00 9.1 1.4 0 165 4.7 0 0 Rain detector off No Precipitation 58 Dry 0 0 0 357 2.6
Hedworth Lane 12/05/2020 09:30:00 9.6 1.8 -0.3 61 2 0 0 Rain detector off No Precipitation 58 Dry 0 0 0 263 0.7
A185 Hebburn 12/05/2020 09:30:00 9.3 0.5 0 0 0 0 0 Rain detector off Invalid 54.2 Unavailable 0 0 0 0 0
A1058 Formica 12/05/2020 09:30:00 9 1.5 0 354 3.4 0 0 Rain detector off No Precipitation 59 Dry 0 0 0 272 1.1
A1 Berwick-upon-Tweed 12/05/2020 09:30:00 8.3 -0.7 -0.3 71 7.1 0 0 Rain detector off No Precipitation 53 Dry 0 0 0 28 4.8
A1 Haggerston 12/05/2020 09:20:00 8.9 0.2 -0.2 97 5 0 0 Rain detector off No Precipitation 54 Dry 0 0 0 42 2.3
A1 Felton 12/05/2020 09:20:00 8.8 -0.1 -0.4 107 6 0 0 Rain detector off No Precipitation 53 Dry 0 0 0 337 3.1
A1 Rosebrough 12/05/2020 09:20:00 7.8 -0.6 -0.2 168 0.1 0 0 Rain detector off No Precipitation 55 Dry 0 0 0 356 0
A1 Stannington 12/05/2020 09:20:00 8.9 0.4 -0.1 32 6.5 0 0 Rain detector off No Precipitation 55 Dry 0 0 0 309 4.5
A697 Longframlington 12/05/2020 09:30:00 7.7 -1.4 0 357 3.6 0 0 Rain detector off No Precipitation 52 Dry 0 0 0 345 3.3
A698 Norham / B6470 The Salutation 12/05/2020 09:30:00 9.2 -0.6 -1.1 116 7.7 0 0 Rain detector off No Precipitation 50 Trace of Chemical 0 0 0 337 5.1
A189 Cramlington 12/05/2020 09:30:00 8.9 0.6 -0.1 95 4.4 0 0 Rain detector off No Precipitation 56 Dry 0 0 0 301 2
A69 Mowden Hall 12/05/2020 09:30:00 7.9 2.6 0 71 3.8 0 0 Rain detector off No Precipitation 69 Dry 0 0 0 265 1.6
A696 Raechester 12/05/2020 09:30:00 6.8 1.1 -0.1 0 6.1 0 0 Rain detector off No Precipitation 67 Dry 0 0 0 321 5.8
A1 Metrocentre 12/05/2020 09:20:00 9.2 1.3 -0.1 116 4 0 0 Rain detector off No Precipitation 58 Dry 0 0 0 319 1.5
A189 Redheugh Bridge 22/05/2019 10:35:00 0 0 0 216 8.5 0 0 Rain detector off Invalid 0 Invalid 0 0 0 288 3
A68 Tow Law 25/03/2019 14:10:00 9.3 -0.8 0 127 3.9 0 0 Rain detector off No Precipitation 49 Dry 0 0 0 328 1.8
A689 Lanehead 25/03/2019 14:10:00 9 0 0 1 6.5 0 0 Rain detector off No Precipitation 0 Dry 0 0 0 253 4.1
A194(M) Blackfell 25/03/2019 14:00:00 11.6 1.1 0 138 3.2 0 0 Rain detector off No Precipitation 48 Dry 0 0 0 31 1.3
Great Stainton 25/03/2019 14:10:00 9.2 1.6 0 147 5.6 0 0 Rain detector off No Precipitation 59 Dry 0 0 0 30 3.8
A6072 Redworth 25/03/2019 14:10:00 10.5 0 0 220 4.6 0 0 Rain detector off No Precipitation 48 Dry 0 0 0 181 2.8
A1 Coniscliffe 25/03/2019 14:00:00 12.3 -0.3 0 100 2.5 0 0 Rain detector off No Precipitation 42 Dry 0 0 0 301 1
A19 Low Stotfold 25/03/2019 14:10:00 9.5 0.7 0 85 7.5 0 0 Rain detector off No Precipitation 54 Dry 0 0 0 346 5.1
A66 Elton 25/03/2019 14:00:00 10.5 1.2 0 164 4.1 0 0 Rain detector off No Precipitation 53 Dry 0 0 0 17 2.1
A181 Running Waters 25/03/2019 14:10:00 9.9 0.5 0 127 4.4 0 0 Rain detector off No Precipitation 52 Dry 0 0 0 16 1.8
B6277 Forest in Teesdale 25/03/2019 14:10:00 8.8 0.8 0 72 4.3 0 0 Rain detector off No Precipitation 57 Dry 0 0 0 313 1.7
A66 North Bitts 25/03/2019 14:00:00 10.4 0.2 0 86 2.9 0 0 Rain detector off No Precipitation 49 Dry 0 0 0 275 1.3
B6309 Medomsley 25/03/2019 14:10:00 10.4 -1.1 0 95 6 0 0 Rain detector off No Precipitation 45 Dry 0 0 0 333 2.3
A689 Bradbury 25/03/2019 14:00:00 10.4 1.6 0 38 4.8 0 0 Rain detector off No Precipitation 54 Dry 0 0 0 308 2.6
B1432 Hawthorn 25/03/2019 14:10:00 8.6 0.9 0 121 7 0 0 Rain detector off No Precipitation 58 Dry 0 0 0 82 5
B6302 Ushaw Moor 25/03/2019 14:10:00 12 -0.2 0 316 4.4 0 0 Rain detector off No Precipitation 43 Dry 0 0 0 303 1.6
A689 Toronto 25/03/2019 14:10:00 10.7 0.5 0 13 3.8 0 0 Rain detector off No Precipitation 49 Dry 0 0 0 271 1.7
A66 Stainmore 25/03/2019 14:00:00 10.5 0.7 0 304 7.7 0 0 Unavailable Unavailable 59 Dry 0 0 0 250 5